Location: Brockett
(40.8000°S, 175.4500°E)
Time: 03:08:52
(UTC+00:00)

SL-16 R/B - Pass Details

Date: 04 August 2024
Orbit: 985 x 1006 km, 99.7° (Epoch: 07 September)

Event Time Altitude Azimuth Distance (km) Brightness Sun altitude
Rises 18:16:18 0° 185° (S) 3,762 5.4 -12.5°
Reaches altitude 10° 18:21:29 10° 222° (SW) 2,795 4.4 -11.5°
Enters shadow 18:22:24 10° 230° (SW) 2,760 4.3 -11.3°
